STARLINK-31679, 59519

Orbit data source: Space-Track

STARLINK-31679, 59519 is a payload satellite owned by SpaceX/Seattle (US) in LEO that was launched on Wed, 17 Apr 2024 UTC via an FALCON 9 launch vehicle from the Air Force Eastern Test Range (AFETR). Payload-class satellites include a variety of spacecraft equipped with specific instruments for various scientific and technological missions. These include communications satellites like Starlink; space stations such as the ISS; scientific satellites like the Hubble; Earth observation satellites from companies like Planet Labs, Umbra, and HawkEye 360; GPS; miniature CubeSats for education and research; and military/defense satellites.

Loading next visibility...
Identifier
59519, 2024-073J
Orbit
LEO
Country
Flag of USUS
Related business
Manufacturer
SpaceX/Seattle
Mission
Operational spacecraft
Bus & Motor
STARLINK V2M, Unknown motor
Mass
730 kg wet, ~700 kg dry
Launch date (UTC)
2024-04-17 (1 year ago)
Launch vehicle
FALCON 9
Launch site
Air Force Eastern Test Range (AFETR)
Object type
Payload
Rocket body
Debris
Shape & HBR
Unknown
Radar Cross Section
Large (>1 m²)

Expand to show TLE details & history
Last TLE update: 2 days ago

TLE from 2 days ago
0 STARLINK-31679
1 59519U 24073J   25259.27675377  .00007753  00000-0  29077-3 0  9992
2 59519  43.0008 212.4329 0000743 256.5455 103.5314 15.27601523 79628
Epoch: 2025-09-16T06:38Z
TLE epoch observation values (Epoch: 2025-09-16T06:38:31.525Z)
Latitude
-0.00002°
Longitude
117.33215°
Altitude
482.879 km
Speed
7.626 km/s
True Right ascension
14h 09m 43s
True Declination
0° 00' 00"
Sunlit
Object was in daylight at epoch
Visualization orbit readout
Latitude
Unknown
Longitude
Unknown
Altitude
Unknown
Speed
Unknown
Apparent Right ascension
Unknown
Apparent Declination
Unknown
Sunlit
N/A
Visualization observer readout
Local Sidereal Time
14:35:42
Azimuth
Unknown
Elevation
Unknown
Doppler factor
Unknown
Orbital elements
Apogee altitude
485.44 km
Perigee altitude
484.42 km
Semi-major axis
6,863.067 km
Eccentricity
0.00007
Inclination
43.0008°
RAAN
212.4329°
Arg. of periapsis
256.5455°
True anomaly
103.53968°
Mean anomaly
103.5314°
Eccentric anomaly
103.53554°
Mean motion
3.81738 °/min
Orbital period
94.31 mins
BSTAR
0.00029077
Loading maneuver chart data...
Computing Atmospheric mass density...
Loading historical data...
Loading historical data...
Loading historical data...
Loading historical data...
Loading historical data...
Loading historical data...
Loading historical data...

Documentation

Showing up to 5 results
|